Flag for U.S.A. Weather past 2 weeks in Port Angeles, Washington, U.S.A.

Now
66 °F

Sunny.


Feels Like: 66 °F
Forecast: 54 / 71 °F
Wind: 7 mph from Northwest

Location: William R. Fairchild International Airport

Current Time: Aug 1, 2014 at 5:27:37 PM

Latest Report: Aug 1, 2014 at 4:53 PM


Visibility: 10 mi

Pressure: 30.02 "Hg

Humidity: 59%

Dew point: 51 °F

Location of Port AngelesLocation

Historic Weather in Port Angeles — Graph

°F

Port Angeles temperature yesterday

Maximum temperature yesterday: 75 °F (at 4:53 PM)
Minimum temperature yesterday: 50 °F (at 5:53 AM)
Average temperature yesterday: 64 °F

Past Weeks' High & Low Weather Summary

 TemperatureHumidityPressure
High75 °F (Jul 31, 4:53 PM)96% (Jul 29, 5:53 AM)30.22 "Hg (Jul 29, 5:53 AM)
Low50 °F (Jul 18, 5:53 AM)42% (Jul 31, 4:53 PM)29.94 "Hg (Jul 20, 3:53 AM)
Average61 °F73%30.08 "Hg
* Reported Jul 17 3:53 PM — Aug 1 3:53 PM, Port Angeles, Weather by CustomWeather, © 2014

Note: Actual official high and low records may vary slightly from our data, if they occured in-between our weather recording intervals... More about our weather records

Advertising

Port Angeles weather history for previous 24 hours

 ConditionsComfort  
Time TempWeatherWind HumidityBarometerVisibility
3:53 PM
Aug 1
71 °FSunny.No wind49%30.03 "Hg10 mi
2:53 PM70 °FSunny.No wind51%30.04 "Hg10 mi
1:53 PM69 °FSunny.3 mph51%30.04 "Hg10 mi
12:53 PM75 °FSunny.6 mph42%30.04 "Hg10 mi
11:53 AM73 °FSunny.5 mph44%30.05 "Hg10 mi
10:53 AM65 °FSunny.5 mph61%30.07 "Hg10 mi
9:53 AM66 °FSunny.3 mph59%30.07 "Hg10 mi
8:53 AM63 °FSunny.3 mph68%30.07 "Hg10 mi
7:53 AM59 °FSunny.3 mph78%30.07 "Hg10 mi
6:53 AM53 °FSunny.No wind89%30.06 "Hg10 mi
5:53 AM51 °FClear.5 mph89%30.05 "Hg10 mi
4:53 AM52 °FClear.No wind89%30.05 "Hg9 mi
3:53 AM54 °FClear.No wind86%30.05 "Hg10 mi
2:53 AM55 °FClear.5 mph83%30.05 "Hg10 mi
1:53 AM57 °FClear.3 mph74%30.04 "Hg10 mi
12:53 AM55 °FClear.8 mph80%30.05 "Hg10 mi
11:53 PM
Jul 31
55 °FClear.6 mph77%30.05 "Hg10 mi
10:53 PM59 °FClear.6 mph64%30.05 "Hg10 mi
9:53 PM67 °FClear.12 mph49%30.06 "Hg10 mi
8:53 PM65 °FSunny.7 mph52%30.05 "Hg10 mi
7:53 PM69 °FSunny.6 mph47%30.05 "Hg10 mi
6:53 PM73 °FSunny.7 mph43%30.05 "Hg10 mi
5:53 PM73 °FSunny.6 mph46%30.07 "Hg10 mi
Weather by CustomWeather, © 2014

See weather overviewHow to use our weather pages